User: anonymous   Login
Location: Iesi
(43.5167°N, 13.2333°E)
Time: 11:02:04
(UTC+00:00)
Language:

Cosmos 2237 - Orbit

View from above orbital plane
View from above orbital plane
View from above satellite
View from above satellite

Ground track
Ground track

The orbit data is extracted from the following two-line orbital elements,

1 22565U 93016A   20296.46378155 +.00000137 +00000-0 +10067-3 0  9995
2 22565 070.8437 349.0659 0002972 109.2546 250.8896 14.12475604421946
Epoch (UTC): 22 October 2020 11:07:50
Eccentricity: 0.0002972
inclination: 70.8437°
perigee height: 849 km
apogee height: 853 km
right ascension of ascending node: 349.0659°
argument of perigee: 109.2546°
revolutions per day: 14.12475604
mean anomaly at epoch: 250.8896°
orbit number at epoch: 42194

The dashed part of the orbit path shows where the satellite is in the earth's shadow,  

DLR